Location: Little Elm
(33.1626°N, 96.9375°W)
Time: 00:29:14
(UTC+00:00)

H-2A R/B (2) - Visible Passes

Search period start: 30 June 2022 00:00
Search period end: 10 July 2022 00:00
Orbit: 438 x 34387 km, 28.9° (Epoch: 28 June)

Date Brightness Start Highest point End Pass type
(mag) Time Alt. Az. Time Alt. Az. Time Alt. Az.
30 Jun 6.6 07:54:25 11° S 16:26:19 69° SSE 16:42:20 10° E visible
01 Jul 9.3 07:26:33 10° SE 11:43:12 38° SE 12:42:43 10° E visible
02 Jul 4.8 11:29:12 10° SW 13:19:55 16° SW 19:32:23 10° ESE visible
03 Jul 7.1 06:57:47 10° SSE 15:17:04 65° SSE 15:40:24 10° E visible
04 Jul 9.5 07:32:58 10° ESE 10:34:16 28° ESE 11:34:45 10° E visible
05 Jul 5.4 09:58:44 10° SSW 12:51:39 24° SW 18:31:11 10° E visible
06 Jul 7.7 06:26:58 10° SSE 14:03:24 60° SSE 14:37:57 10° E visible
07 Jul 9.5 07:45:40 10° ESE 09:28:48 18° ESE 10:19:47 10° E visible
08 Jul 5.9 08:46:45 11° SSW 12:43:44 31° SSW 17:29:48 10° E visible
09 Jul 8.5 06:26:41 10° SE 12:46:06 53° SE 13:34:47 10° E visible
